379P/Spacewatch (2019)

Japanese version
Home page
Updated on August 6, 2019

---------------------------------------------------------------------

* Profile

Designation 379P/2019 D2
Recovery Date February 28, 2019
Magnitude 20.1 mag
Recoverer Mount Lemmon Survey

* Pictures

* Orbital Elements

Epoch 2019 July 16.0 TT = JDT 2458680.5
T 2019 Aug. 1.55687 TT                                  MPCW
q   2.3335626            (2000.0)            P               Q
n   0.14890180     Peri.   31.20264     -0.81767860     +0.57547774
a   3.5253542      Node   184.02850     -0.56244048     -0.80418735
e   0.3380629      Incl.   12.38609     -0.12272901     -0.14868783
P   6.62
From 55 observations 2006 Mar. 26-2019 Apr. 3, mean residual 0".6.

* Magnitudes Graph

        m1 = 14.5 + 5 log d + 10.0 log r

---------------------------------------------------------------------

The orbital elements are published on M.P.E.C. 2019-G21.
The magnitudes graphs are made with Comet for Windows.

---------------------------------------------------------------------

Copyright(C) Seiichi Yoshida (comet@aerith.net). All rights reserved.